Regional Weather Roundup
Issued by NWS

Home | Current Version | Previous Version | Text Only | Print | Product List | Glossary Off
Versions: 1 2 3 4 5 6 7 8 9 10 11 12 13 14 15 16 17 18 19 20 21 22 23 24 25 26 27 28 29 30 31 32 33 34 35 36 37 38 39 40 41 42 43 44 45 46 47 48 49 50

000
ASUS43 KFSD 230310
RWRSD

WEATHER ROUNDUP FOR SOUTH DAKOTA
NATIONAL WEATHER SERVICE SIOUX FALLS SD
900 PM CST SUN JAN 22 2017

NOTE: "FAIR" INDICATES FEW OR NO CLOUDS BELOW 12,000 FEET WITH NO
SIGNIFICANT WEATHER AND/OR OBSTRUCTIONS TO VISIBILITY.


SDZ001>005-009-010-012>017-230400-
NORTHWEST AND NORTH CENTRAL SOUTH DAKOTA

CITY           SKY/WX    TMP DP  RH WIND       PRES   REMARKS
BUFFALO          N/A     20  18  92 NW7       29.74F WCI  11
FAITH            N/A     19  18  95 N5        29.84F WCI  12
MOBRIDGE       CLOUDY    30  24  78 NW6       29.83F WCI  24
$$

SDZ012>016-024>037-041>051-057-063-072>074-230400-
SOUTHWEST AND SOUTH CENTRAL SOUTH DAKOTA

CITY           SKY/WX    TMP DP  RH WIND       PRES   REMARKS
RAPID CTY ARPT CLEAR     27  20  75 E3        29.82F
PIERRE         CLOUDY    28  24  85 W6        29.87F WCI  22
CUSTER         CLEAR     25  14  63 W3        29.78F
ELLSWORTH AFB  CLEAR     28  23  80 S3        29.82S
PHILIP         CLEAR     17  16  95 CALM      29.88F
PINE RIDGE     CLEAR     21  18  88 CALM      29.85F
SPEARFISH      FAIR      30  18  59 VRB3      29.80S
WINNER         MOCLDY    23  21  92 SW3       29.90S
$$

SDZ004>011-016>023-039-040-230400-
NORTHEAST SOUTH DAKOTA

CITY           SKY/WX    TMP DP  RH WIND       PRES   REMARKS
ABERDEEN       CLOUDY    32  26  78 NW9       29.85S WCI  24
WATERTOWN      CLOUDY    29  28  96 W10       29.81S WCI  20
BROOKINGS      CLOUDY    29  28  96 NW13      29.82S WCI  19
SISSETON         N/A     34  31  88 NW13      29.80S WCI  25
$$

SDZ017-020-022-023-036>040-048>070-230400-
SOUTHEAST SOUTH DAKOTA

CITY           SKY/WX    TMP DP  RH WIND       PRES   REMARKS
SIOUX FALLS    CLOUDY    31  28  89 NW14      29.85S WCI  21
HURON          CLOUDY    30  28  92 NW9       29.86F WCI  22
CHAMBERLAIN    CLOUDY    31  28  90 NW8       29.89F WCI  24
MITCHELL       CLOUDY    32  28  85 NW9       29.89S WCI  24
YANKTON        CLOUDY    30  27  86 NW20      29.88S WCI  18
$$

ABBREVIATIONS USED IN REMARKS
   TC - TEMPERATURE IN CELSIUS
  WCI - WIND CHILL INDEX
   HX - HEAT INDEX
  VSB - VISIBILITY





USA.gov is the U.S. government's official web portal to all federal, state and local government web resources and services.